Location: Izdebno
(52.6670°N, 16.2170°E)
Time: 06:00:45
(UTC+01:00)

Envisat - Pass Details

Date: 12 December 2023
Orbit: 762 x 764 km, 98.3° (Epoch: 20 February)

Event Time Altitude Azimuth Distance (km) Brightness Sun altitude
Rises 04:50:41 0° 9° (N) 3,246 6.3 -26.8°
Reaches altitude 10° 04:53:13 10° 359° (N) 2,315 5.4 -26.4°
Enters shadow 04:53:17 10° 359° (N) 2,291 5.4 -26.4°
